Вернуться в каталог

USA 355

АктивенВоенныеVLEO
NORAD 59815·PAYLOAD·🇺🇸 United States

Запущен May 22, 2024 с Vandenberg Space Force Base

Loading…

Ближайшие Пролёты (ближайшие 24 часа)

TLE

УстаревшееSource: Mike McCants

Эпоха: Aug 23, 2026, 20:57 UTC

1 59815U 24096B   26235.87341122 0.00000000  00000-0  00000-0 0    08
2 59815  70.0200 157.1811 0003000  97.7021 262.2979 14.96712645    04

Отслеживайте USA 355 в реальном времени с AllMySat

Download on the App Store